#timestamp,LO_Frequency,Hit 
1506175215.1,286047000.1,N
1506175235.8,286046999.9,N
1506175255.7,286047000.2,N
1506175275.5,286047002.7,N
1506175295.3,286047002.3,N
1506175315.2,286047000.1,N
1506175335.9,286046999.7,N
1506175355.7,286047002.8,N
1506175375.6,286046999.7,N
1506175395.4,286047000.1,N
1506175415.2,286046999.7,N
1506175435.0,286046999.9,N
1506175436.0,286046999.9,N
1506175455.8,286047000.9,N
1506175475.6,286046999.7,N
1506175495.4,286047002.4,N
1506175515.3,286047001.6,N
1506175535.1,286047002.4,N
1506175555.8,286046999.7,N
1506175575.7,286047001.5,N
1506175595.5,286047001.7,N
1506175615.3,286047001.6,N
1506175635.2,286047002.2,N
1506175655.9,286047002.4,N
1506175675.7,286047002.5,N
1506175695.6,286047001.3,N
1506175715.4,286047002.4,N
1506175735.2,286047002.7,N
1506175755.1,286047002.7,N
1506175756.0,286047002.7,N
1506175775.8,286047002.8,N
1506175795.6,286047001.8,N
1506175815.5,286047001.3,N
1506175835.3,286047000.4,N
1506175855.1,286047002.8,N
1506175875.8,286047000.3,N
1506175895.7,286047000.8,N
1506175915.5,286046999.4,N
1506175935.3,286046998.4,N
1506175955.2,286046998.7,N
1506175975.9,286046999.8,N
1506175995.7,286046999.7,N
1506176015.6,286046998.7,N
1506176035.4,286046999.8,N
1506176055.2,286047003.8,N
1506176075.1,286047005.4,P
1506176076.0,286047005.4,N
1506176095.8,286047004.7,N
1506176115.6,286047006.6,P
1506176135.5,286047001.6,N
1506176155.3,286047001.3,N
1506176175.1,286047004.2,N
1506176195.9,286047006.0,P
1506176215.7,286047001.0,N
1506176235.5,286047000.0,N
1506176255.4,286046999.9,N
1506176275.2,286047000.0,N
1506176295.0,286047000.1,N
1506176295.9,286047000.1,N
1506176315.8,286047002.3,N
1506176335.6,286047001.4,N
1506176355.4,286047001.4,N
1506176375.3,286047001.9,N
1506176395.1,286047003.8,N
1506176396.0,286047003.8,N
1506176415.8,286047001.9,N
1506176435.7,286047001.4,N
1506176455.5,286047000.2,N
1506176475.3,286046999.9,N
1506176495.1,286046998.1,N
1506176515.9,286046998.2,N
1506176535.7,286046998.4,N
1506176555.5,286046998.8,N
1506176575.4,286047000.6,N
1506176595.2,286046998.3,N
1506176615.0,286046998.6,N
1506176615.9,286046998.6,N
1506176635.8,286046998.4,N
1506176655.6,286046998.7,N
1506176675.4,286046999.6,N
1506176695.3,286046999.6,N
1506176715.1,286046994.9,N
1506176716.0,286046994.9,N
1506176735.8,286046996.2,N
1506176755.7,286046995.2,N
1506176775.5,286046993.3,N
1506176795.3,286046995.6,N
1506176815.2,286046995.3,N
1506176835.9,286046997.3,N
1506176855.7,286046997.7,N
1506176875.5,286046995.0,N
1506176895.4,286046993.4,N
1506176915.2,286046996.2,N
1506176935.0,286046995.0,N
1506176935.9,286046995.0,N
1506176955.8,286046996.0,N
1506176975.6,286046995.1,N
1506176995.4,286046997.5,N
1506177015.3,286046995.6,N
1506177035.1,286046997.8,N
1506177055.8,286046997.4,N
1506177075.7,286046999.6,N
1506177095.5,286046999.5,N
1506177115.3,286046998.9,N
1506177135.2,286046999.1,N
1506177155.9,286046998.8,N
1506177175.7,286046998.9,N
1506177195.6,286046998.8,N
1506177215.4,286046999.1,N
1506177235.2,286046998.9,N
1506177255.0,286046996.6,N
1506177255.9,286046996.6,N
1506177275.8,286046996.6,N
1506177295.6,286046999.0,N
1506177315.4,286046999.1,N
1506177335.3,286046998.7,N
1506177355.1,286046997.2,N
1506177375.8,286046995.2,N
1506177395.7,286046995.0,N
1506177415.5,286046997.8,N
1506177435.3,286046996.0,N
1506177455.2,286046993.4,P
1506177475.9,286046998.8,N
1506177495.7,286046996.7,N
1506177515.6,286046993.7,P
1506177535.4,286047000.3,N
1506177555.2,286047002.7,N
1506177575.1,286046998.1,N
1506177576.0,286046998.1,N
1506177595.8,286046999.8,N
1506177615.6,286047002.4,N
1506177635.5,286047000.8,N
1506177655.3,286047000.4,N
1506177675.1,286047000.7,N
1506177695.9,286047002.7,N
1506177715.7,286046999.7,N
1506177735.5,286047001.6,N
1506177755.3,286047001.9,N
1506177775.2,286047004.1,N
1506177795.0,286047001.6,N
1506177795.9,286047001.6,N
1506177815.7,286047004.1,N
1506177835.6,286047003.5,N
1506177855.4,286047003.2,N
1506177875.2,286047003.9,N
1506177895.1,286047003.8,N
1506177896.0,286047003.8,N
1506177915.8,286047002.9,N
1506177935.6,286047005.6,N
1506177955.5,286047004.1,N
1506177975.3,286047003.4,N
1506177995.1,286047005.6,N
1506178015.9,286047005.5,N
1506178035.7,286047004.7,N
1506178055.5,286047004.7,N
1506178075.3,286047004.7,N
1506178095.2,286047004.8,N
1506178115.0,286047004.6,N
1506178115.9,286047004.6,N
1506178135.8,286047007.2,P
1506178155.6,286047003.8,N
1506178175.4,286047003.1,N
1506178195.3,286047003.5,N
1506178215.1,286047003.4,N
1506178216.0,286047003.4,N
1506178235.8,286047004.1,P
1506178255.7,286046998.3,P
1506178275.5,286046999.3,N
1506178295.3,286046999.3,N
1506178315.1,286046996.6,N
1506178335.9,286046999.0,N
1506178355.7,286046998.3,N
1506178375.5,286046998.9,N
1506178395.4,286047000.6,N
1506178415.2,286046998.2,N
1506178435.0,286047000.6,N
1506178435.9,286047000.6,N
1506178455.8,286046998.6,N
1506178475.6,286047001.2,N
1506178495.4,286047000.6,N
1506178515.3,286047002.7,N
1506178535.1,286047002.5,N
1506178536.0,286047002.5,N
1506178555.8,286046999.7,N
1506178575.7,286046999.8,N
1506178595.5,286046999.9,N
1506178615.3,286046995.7,N
1506178635.1,286046997.0,N
1506178655.9,286046998.2,N
1506178675.7,286046998.9,N
1506178695.5,286046997.1,N
1506178715.4,286046999.5,N
1506178735.2,286046998.1,N
1506178755.0,286046998.8,N
1506178755.9,286046998.8,N
1506178775.8,286046998.8,N
1506178795.6,286046998.8,N
